Temperature
20 18 18 19 20 21 21 21 21 21 21 21 21 20 20 20 20 20 20 20 21 21 21 22 22 21 21 21 21 20 20 20 20 19 19 19 19 18 18 18 18 18 18 17
18 19 19 20 20 21 21 21 21 21 21 21 20 20 20 20 20 20 20 20 21 21 21 21 21 21 21 21 21 20 20 20 19 19 19 19 19 18 18 18 18 18 17 17
20 20 20 20 20 21 20 20 20 21 20 20 21 20 20 20 20 21 20 20 21 21 21 21 21 21 21 21 21 20 20 20 19 19 19 19 18 18 18 18 18 18 17 17
19 20 21 21 21 21 20 21 21 21 20 19 20 19 20 19 19 19 20 20 20 21 21 21 21 21 21 21 20 20 20 20 19 19 19 19 18 18 18 18 18 17 17 17
20 20 21 21 21 21 21 21 20 20 19 19 19 19 18 19 19 19 19 20 20 21 21 21 21 21 21 21 20 20 20 19 19 19 18 19 18 18 18 18 18 17 17 17
20 21 21 21 21 21 21 20 18 16 17 18 19 18 19 18 19 19 19 20 20 21 21 21 21 21 20 20 20 20 20 19 19 19 18 18 18 18 18 18 17 17 17 17
20 21 21 22 21 21 20 18 18 18 17 17 18 18 18 19 19 19 19 20 20 21 21 21 20 20 20 20 20 20 20 19 19 19 18 18 18 18 18 17 17 17 17 17
19 19 21 21 21 20 19 18 18 18 18 17 18 18 19 19 19 20 20 20 20 20 21 20 20 20 20 20 20 20 20 19 19 19 18 18 18 17 17 17 17 17 16 16
18 19 21 21 21 20 19 18 18 16 17 17 17 18 18 19 19 19 19 19 20 20 20 20 20 20 20 20 20 20 20 19 19 18 18 18 17 17 17 17 17 16 16 16
19 19 20 21 21 20 19 16 15 16 17 18 19 18 18 19 19 18 17 18 19 20 20 20 20 20 20 20 20 19 19 19 18 18 18 18 17 17 17 17 17 16 16 16
18 19 20 20 21 20 18 18 15 14 16 17 18 18 19 18 18 17 17 18 19 19 20 20 20 19 19 19 19 19 19 19 18 18 17 17 17 17 17 17 16 16 16 16
16 16 17 19 19 20 19 18 16 17 17 15 16 17 19 17 17 17 18 18 19 19 19 20 20 19 19 19 19 19 18 18 18 17 17 17 17 17 16 16 16 16 16 15
16 16 17 18 18 19 19 18 16 15 14 14 16 18 18 17 17 18 18 18 19 19 19 19 19 19 19 19 19 18 18 18 17 17 17 17 17 16 16 16 16 16 15 15
16 15 16 18 18 18 19 18 17 16 15 15 16 18 18 17 17 17 18 18 19 19 19 19 19 18 18 18 18 18 17 17 17 17 17 16 16 16 16 16 16 15 15 15
15 15 16 17 18 18 19 19 18 17 16 17 17 17 18 17 16 17 18 18 18 18 18 19 19 18 18 18 18 18 17 17 17 16 16 16 16 16 16 15 15 15 15 15
13 15 16 17 18 18 18 18 18 18 17 17 18 17 17 17 17 17 17 17 17 18 18 18 18 18 18 18 17 17 17 17 16 16 16 16 16 16 15 15 15 15 15 15
13 14 15 15 16 18 17 17 18 17 17 17 17 17 16 16 16 17 17 17 18 18 18 18 18 18 18 18 17 17 17 16 16 16 16 16 15 15 15 15 15 15 15 14
12 12 12 14 16 17 17 17 17 17 16 16 16 16 15 16 17 17 18 18 18 18 18 18 17 17 17 17 17 17 16 16 15 15 15 15 15 15 15 15 15 15 14 14
12 12 12 12 15 16 17 17 16 17 17 16 16 16 16 16 16 16 17 18 18 18 18 18 18 17 17 17 16 16 16 15 15 15 15 15 15 15 15 14 14 14 14 14
11 11 12 12 15 15 16 16 17 17 16 16 15 15 15 15 15 15 17 17 17 17 18 17 17 17 16 16 16 16 15 15 15 15 15 15 15 14 14 14 14 14 14 14
13 12 12 12 14 14 15 15 16 16 16 16 15 15 15 15 16 17 17 17 17 17 17 17 17 16 16 16 15 15 15 15 15 15 14 14 14 14 14 14 14 13 13 13
12 12 12 11 13 14 14 14 15 14 15 15 15 15 16 16 16 16 16 17 16 16 16 16 16 16 16 15 15 15 15 14 14 14 14 14 14 14 14 13 13 13 13 13
11 11 11 11 12 13 13 14 15 15 15 15 15 16 15 15 15 16 16 16 16 16 16 16 16 15 15 15 15 15 14 14 14 14 13 13 13 13 13 13 13 13 13 13
11 10 10 11 11 13 14 14 15 15 15 15 16 16 15 15 15 15 15 15 15 15 15 15 15 15 14 14 14 14 14 13 13 13 13 13 13 13 13 13 12 12 12 12
11 10 10 11 11 12 14 14 15 15 15 15 15 15 15 15 15 15 14 14 14 14 14 14 14 14 14 14 14 14 13 13 13 13 13 12 12 12 12 12 12 12 12 12
10 10 10 11 12 12 13 14 15 15 15 15 15 15 15 15 14 14 14 14 14 14 14 14 14 14 14 13 13 13 13 13 13 12 12 12 12 12 12 12 12 12 12 12
Wind_Speed
3 4 4 7 7 6 5 3 3 4 2 2 2 4 5 3 4 5 5 5 6 6 4 3 4 5 5 5 5 6 5 4 4 3 2 1 1 1 1 1 1 2 2 2
4 3 7 5 5 4 4 2 2 3 2 1 2 4 4 2 5 6 7 7 8 5 3 3 3 4 5 5 5 5 5 5 5 4 3 2 1 1 1 0 1 1 1 2
6 5 4 6 5 4 3 5 5 3 3 3 2 5 4 3 2 3 4 5 6 7 7 6 5 5 5 5 5 6 5 6 5 5 3 3 2 1 1 1 0 0 1 2
4 5 4 4 5 7 5 7 6 4 2 2 2 2 6 3 3 4 6 6 7 6 5 6 6 6 6 5 4 4 4 5 5 5 5 5 4 2 2 1 0 1 1 1
5 4 5 6 7 8 6 3 4 3 4 0 1 2 7 3 5 7 7 7 7 6 6 6 6 6 6 6 5 5 4 4 5 5 6 6 4 2 1 1 1 1 1 1
5 3 5 6 4 6 5 6 6 6 5 1 4 4 6 5 7 5 5 6 7 6 6 5 4 5 5 5 5 5 5 4 4 5 5 5 4 3 2 1 1 1 1 1
3 4 3 3 3 2 6 6 3 3 2 5 2 3 8 7 7 6 5 6 6 6 6 5 6 6 6 6 6 6 5 4 4 5 4 5 4 4 4 3 2 1 0 0
3 5 4 4 6 6 6 9 8 6 5 4 1 5 7 5 4 3 3 4 4 4 5 6 7 7 6 6 6 7 6 4 4 5 4 3 3 3 3 3 3 2 2 1
7 6 4 3 4 9 7 5 6 7 3 1 4 6 8 3 2 1 1 3 4 5 5 6 6 6 6 6 6 7 7 6 4 4 4 3 3 3 3 2 2 2 1 1
7 4 4 2 4 3 6 9 6 6 6 3 4 4 5 6 5 3 3 3 3 3 4 5 5 6 5 5 5 5 6 6 5 4 4 3 3 2 2 2 2 2 1 1
5 4 3 2 4 5 4 5 5 5 5 6 4 7 6 7 6 6 6 4 4 4 5 5 5 5 4 4 4 4 5 5 4 4 3 3 2 2 3 2 2 2 2 2
3 5 2 5 4 3 5 7 8 6 4 4 5 7 5 5 5 5 5 3 3 4 3 4 5 5 5 5 5 4 4 4 4 4 4 3 2 2 2 2 1 2 2 1
5 5 1 4 4 2 3 3 5 6 6 6 5 7 3 1 2 3 4 3 3 4 4 4 4 5 5 5 5 4 4 4 4 5 5 4 2 2 2 2 1 2 2 2
5 4 6 8 6 3 2 2 4 6 5 6 7 7 5 4 4 3 3 3 3 4 4 4 5 4 4 4 5 5 3 3 4 4 5 4 3 3 2 2 2 2 2 2
4 3 3 4 4 3 3 4 5 6 8 8 8 8 9 8 7 6 4 4 4 3 4 4 4 4 4 4 4 4 3 3 3 4 4 3 2 2 2 2 1 2 2 2
3 3 1 2 2 1 2 3 4 4 4 5 3 6 7 3 2 2 4 5 5 5 4 4 4 5 5 5 4 4 4 4 4 4 4 3 2 2 2 2 2 2 1 1
2 4 3 3 3 1 3 5 4 3 2 5 6 8 3 2 4 5 5 6 6 6 5 4 5 5 5 5 5 5 4 3 3 2 2 2 3 2 2 2 2 2 2 1
5 4 4 2 1 4 6 3 4 5 3 3 4 4 4 5 4 3 4 6 6 5 5 4 4 4 4 4 4 4 4 4 3 2 2 2 2 2 2 2 2 2 1 2
5 7 4 4 3 4 4 1 2 4 3 3 3 2 2 1 3 2 2 4 5 5 4 4 4 4 4 4 4 5 4 3 3 3 3 3 3 3 3 3 3 2 2 2
4 4 5 4 4 5 5 3 2 3 3 3 3 3 2 4 2 4 3 2 3 2 2 2 3 3 4 3 4 5 4 3 3 3 3 3 3 4 4 4 3 2 2 3
3 4 3 3 3 5 4 5 1 4 6 3 3 4 5 5 5 3 2 2 2 2 2 3 4 4 4 4 5 4 3 3 3 2 1 2 2 3 3 2 2 2 2 2
3 3 3 3 3 5 4 1 2 5 3 3 2 3 4 4 1 1 2 2 2 2 2 3 4 3 3 4 5 4 3 3 2 2 1 1 1 1 1 2 2 2 2 2
3 5 4 5 5 4 3 3 3 2 2 2 2 2 3 3 2 1 1 1 2 2 2 2 4 3 2 3 5 4 3 2 2 2 1 1 1 0 1 2 2 2 2 2
2 2 3 1 4 4 5 4 3 1 2 2 1 1 3 3 2 2 2 1 1 1 2 2 3 3 2 2 3 3 2 2 2 2 1 1 1 0 0 1 2 2 2 2
4 2 2 2 4 5 5 4 4 3 2 1 1 1 3 4 3 3 2 1 1 1 1 2 3 3 3 2 2 2 2 2 2 2 1 0 0 0 0 0 1 2 2 3
3 5 5 5 6 4 5 5 3 2 2 1 1 1 1 3 3 3 2 1 1 1 1 2 2 2 2 2 2 1 2 3 3 2 1 1 1 1 1 1 2 2 1 2
Wind_Direction
93 96 183 204 190 176 163 172 239 270 306 35 292 286 283 226 185 197 203 200 207 216 209 167 164 153 153 158 165 173 172 171 156 146 150 161 212 228 220 193 173 171 174 162
62 240 219 178 158 145 152 186 249 306 6 65 310 304 294 220 204 199 201 208 212 210 193 180 172 162 163 170 175 174 179 179 171 165 160 156 170 222 197 222 78 116 147 148
183 227 170 150 157 161 190 194 208 222 2 26 27 329 307 290 250 221 212 208 210 204 199 194 188 189 176 177 181 184 180 178 172 157 129 107 86 36 31 17 1 358 140 128
218 238 164 165 190 167 227 217 192 176 104 300 67 281 291 278 282 245 228 215 216 210 198 194 187 187 188 186 173 171 175 174 166 155 152 150 164 186 217 222 247 18 76 107
227 199 174 196 209 172 204 170 153 150 148 43 1 182 282 297 262 250 232 220 216 204 190 190 189 187 185 174 168 170 166 165 160 164 173 162 166 187 169 111 86 61 46 75
233 225 194 201 202 172 147 74 61 56 83 215 230 185 272 246 232 243 227 219 210 195 188 180 164 159 169 162 158 155 156 160 164 167 168 163 167 167 144 120 111 75 25 39
304 288 249 168 122 93 111 99 44 11 19 244 239 189 249 254 236 223 222 218 207 190 174 164 160 164 169 165 165 157 152 159 170 167 172 175 175 171 179 181 170 163 145 18
190 271 243 192 173 172 167 146 160 188 210 259 253 224 255 269 268 236 216 210 196 184 172 174 176 174 173 171 169 164 157 157 165 167 174 174 166 169 182 182 170 178 192 209
181 244 276 230 175 143 142 169 167 140 151 185 268 278 300 288 313 294 214 203 194 180 178 181 178 174 170 170 171 171 160 155 163 167 161 151 154 160 169 170 160 168 185 179
165 217 275 265 98 58 140 144 109 128 152 218 271 263 245 255 258 261 236 219 216 186 181 180 175 175 173 168 161 152 153 159 159 153 156 156 156 151 154 148 148 147 154 149
143 174 293 27 167 171 112 114 116 123 151 161 220 262 230 223 222 226 230 225 210 199 195 179 174 166 152 141 143 149 150 150 151 154 151 145 154 143 132 140 152 144 134 130
140 134 240 262 263 190 158 163 147 153 198 173 177 259 275 232 224 211 217 211 197 190 180 161 155 144 142 143 143 148 155 156 160 155 147 153 150 139 131 145 159 147 153 152
141 122 88 336 346 31 102 143 145 127 124 156 172 254 293 308 232 208 200 200 180 167 155 146 148 150 155 155 150 149 158 162 154 148 147 143 145 144 161 179 171 157 162 147
125 125 170 200 215 198 193 174 154 132 152 192 211 232 270 263 244 232 213 197 176 168 166 160 165 164 165 165 157 150 155 160 157 156 153 156 170 190 196 185 173 168 162 149
113 149 203 235 246 207 207 210 185 184 187 189 221 220 238 231 224 216 202 180 164 168 170 174 174 173 171 165 159 155 156 162 162 159 161 180 186 176 173 167 169 164 151 139
80 142 149 301 298 252 229 240 212 209 197 207 220 248 253 240 179 186 197 184 187 195 192 185 176 175 180 177 174 170 166 167 163 169 172 168 160 168 180 181 164 153 146 132
114 128 127 253 298 39 258 234 200 193 210 180 207 237 238 208 207 209 208 199 203 206 198 192 188 188 189 184 174 179 176 155 150 160 166 168 168 179 195 188 157 174 175 172
145 127 136 160 85 221 243 258 187 177 213 215 226 248 222 218 216 212 204 203 205 201 190 192 198 194 192 180 167 159 147 149 153 161 177 184 184 192 197 179 182 196 193 192
163 143 130 135 175 257 286 271 171 173 248 236 216 252 260 168 75 335 242 206 205 200 194 196 199 192 178 169 162 141 140 150 160 181 198 205 198 198 199 202 210 210 198 215
73 106 120 134 161 217 244 293 289 138 259 253 198 204 179 116 145 255 248 211 204 197 189 181 164 148 160 167 144 135 148 158 191 218 220 207 195 195 203 210 215 216 201 218
55 65 120 159 201 254 274 300 22 158 240 279 219 210 181 182 209 233 204 192 189 174 161 146 146 158 173 157 141 148 162 194 215 205 195 196 196 197 195 199 198 193 194 197
162 144 165 149 182 250 309 19 161 227 276 298 255 226 197 203 219 162 157 165 156 147 146 143 142 154 159 152 149 161 191 216 190 152 151 179 213 193 167 164 167 174 177 188
186 189 185 185 208 251 283 246 267 233 253 264 237 242 178 167 171 155 143 144 144 149 152 143 140 142 146 156 156 175 207 187 157 148 168 186 161 149 145 167 170 172 185 205
263 158 148 231 274 288 298 302 319 293 247 262 227 172 143 151 163 145 133 135 128 124 122 117 124 139 169 169 164 184 191 155 154 165 193 200 172 186 131 163 178 185 204 218
234 170 168 241 273 307 308 300 304 318 315 337 41 116 143 143 143 141 139 148 137 121 110 127 143 166 187 175 164 165 164 152 154 157 159 206 223 213 273 286 241 216 221 211
213 187 183 222 222 207 252 271 291 294 283 241 176 73 93 132 145 134 142 157 148 149 140 137 143 156 169 162 163 156 156 161 159 171 197 211 225 237 252 288 339 350 257 235
Height
1494 1501 1506 1504 1503 1504 1507 1511 1513 1509 1504 1506 1508 1507 1503 1501 1501 1502 1503 1504 1504 1505 1508 1510 1511 1513 1515 1517 1518 1520 1521 1523 1524 1525 1526 1527 1527 1528 1528 1528 1529 1529 1529 1529
1499 1502 1497 1497 1500 1503 1506 1511 1513 1509 1505 1506 1509 1508 1502 1500 1499 1499 1501 1502 1503 1504 1507 1508 1510 1511 1513 1515 1517 1518 1520 1522 1523 1525 1526 1526 1527 1526 1527 1528 1528 1529 1529 1529
1498 1496 1493 1496 1500 1504 1507 1511 1511 1511 1509 1507 1510 1512 1505 1500 1499 1499 1500 1500 1501 1502 1503 1505 1507 1509 1511 1513 1515 1517 1519 1521 1522 1524 1525 1525 1525 1526 1526 1526 1527 1528 1528 1528
1495 1491 1492 1496 1499 1501 1509 1501 1503 1508 1516 1522 1516 1528 1511 1503 1500 1498 1497 1498 1498 1499 1501 1503 1505 1507 1509 1511 1514 1516 1518 1519 1521 1522 1523 1524 1524 1524 1525 1525 1526 1527 1527 1527
1493 1490 1491 1495 1494 1496 1500 1497 1502 1507 1515 1522 1520 1527 1518 1504 1503 1497 1494 1495 1496 1497 1499 1500 1502 1505 1507 1510 1512 1514 1516 1518 1519 1521 1522 1522 1523 1524 1524 1524 1525 1525 1526 1526
1488 1485 1486 1487 1487 1490 1494 1501 1508 1516 1522 1532 1522 1527 1521 1507 1499 1494 1492 1492 1493 1495 1497 1498 1501 1503 1506 1508 1510 1512 1514 1516 1517 1519 1520 1521 1522 1523 1523 1524 1524 1525 1525 1525
1491 1486 1483 1483 1489 1491 1495 1512 1530 1531 1539 1535 1520 1522 1516 1496 1491 1490 1490 1490 1491 1493 1494 1496 1499 1501 1504 1506 1508 1510 1512 1514 1515 1517 1518 1519 1521 1522 1522 1523 1523 1524 1524 1524
1499 1499 1484 1481 1485 1493 1497 1506 1527 1537 1539 1532 1521 1521 1505 1491 1488 1487 1488 1488 1490 1491 1492 1494 1497 1499 1501 1504 1506 1508 1510 1512 1514 1515 1516 1518 1519 1520 1521 1521 1521 1522 1522 1523
1497 1496 1480 1478 1478 1484 1497 1504 1504 1521 1526 1531 1526 1515 1500 1489 1488 1487 1487 1488 1488 1489 1491 1493 1495 1497 1499 1501 1504 1506 1507 1510 1512 1514 1515 1516 1517 1518 1519 1520 1520 1520 1521 1521
1485 1492 1482 1478 1478 1483 1487 1496 1511 1521 1533 1534 1524 1518 1510 1494 1490 1488 1487 1487 1487 1488 1490 1491 1493 1495 1497 1499 1502 1505 1506 1508 1510 1512 1513 1515 1516 1517 1517 1518 1518 1519 1519 1520
1481 1491 1487 1482 1483 1487 1492 1498 1506 1518 1520 1530 1532 1520 1492 1489 1487 1487 1485 1486 1486 1487 1488 1489 1491 1494 1496 1498 1500 1502 1504 1506 1508 1510 1512 1513 1514 1515 1516 1516 1517 1517 1518 1518
1482 1491 1496 1488 1480 1478 1482 1490 1501 1512 1518 1522 1524 1515 1485 1484 1483 1483 1484 1485 1485 1487 1488 1489 1491 1493 1494 1496 1498 1501 1503 1505 1507 1509 1511 1512 1513 1514 1514 1514 1515 1515 1516 1516
1481 1492 1501 1497 1493 1485 1485 1488 1493 1501 1513 1522 1522 1509 1484 1483 1482 1482 1483 1484 1485 1486 1487 1489 1490 1492 1493 1495 1497 1499 1501 1503 1505 1507 1509 1510 1511 1511 1512 1512 1513 1514 1514 1515
1476 1490 1496 1500 1495 1488 1487 1487 1491 1497 1510 1514 1508 1498 1487 1484 1483 1482 1482 1483 1484 1485 1486 1487 1489 1490 1492 1494 1496 1498 1500 1502 1503 1505 1506 1507 1508 1509 1509 1510 1511 1512 1513 1513
1476 1488 1487 1486 1482 1482 1483 1484 1486 1490 1494 1499 1495 1492 1484 1481 1480 1480 1481 1482 1483 1484 1485 1486 1487 1489 1491 1493 1495 1496 1498 1500 1502 1503 1504 1505 1506 1508 1508 1509 1509 1510 1510 1510
1479 1485 1485 1485 1481 1481 1483 1481 1482 1484 1486 1488 1487 1487 1477 1477 1478 1479 1480 1481 1482 1483 1484 1485 1487 1488 1489 1491 1493 1495 1497 1498 1500 1501 1502 1503 1505 1506 1506 1507 1507 1508 1508 1508
1482 1486 1491 1493 1486 1483 1490 1482 1481 1482 1481 1483 1486 1482 1476 1477 1477 1477 1478 1479 1480 1482 1483 1484 1485 1487 1488 1490 1492 1494 1495 1497 1498 1499 1500 1501 1502 1503 1504 1505 1505 1506 1506 1506
1481 1487 1494 1496 1491 1497 1486 1475 1475 1478 1479 1478 1477 1475 1474 1474 1474 1475 1476 1478 1479 1480 1482 1483 1485 1486 1487 1489 1491 1492 1494 1496 1497 1498 1499 1499 1500 1501 1502 1502 1503 1503 1504 1504
1476 1484 1494 1499 1497 1492 1481 1475 1476 1478 1479 1475 1475 1474 1473 1474 1475 1475 1476 1477 1478 1479 1481 1482 1484 1486 1487 1487 1489 1490 1492 1494 1495 1496 1496 1497 1498 1499 1499 1500 1500 1501 1502 1502
1477 1480 1490 1496 1495 1496 1483 1474 1472 1475 1481 1473 1473 1473 1473 1474 1479 1477 1474 1475 1477 1479 1480 1482 1483 1484 1485 1486 1488 1489 1490 1492 1493 1494 1494 1495 1495 1496 1497 1497 1498 1499 1500 1500
1483 1486 1491 1494 1494 1488 1478 1473 1472 1484 1481 1472 1471 1471 1471 1472 1473 1473 1473 1474 1476 1478 1479 1481 1482 1483 1484 1485 1486 1487 1489 1490 1491 1492 1493 1493 1493 1494 1494 1495 1495 1497 1497 1498
1485 1488 1491 1494 1495 1491 1475 1473 1476 1476 1472 1471 1470 1470 1470 1470 1471 1471 1472 1473 1475 1476 1478 1479 1480 1481 1483 1484 1485 1486 1487 1488 1489 1490 1490 1491 1491 1491 1492 1492 1493 1494 1495 1495
1483 1483 1484 1485 1485 1477 1474 1473 1472 1471 1471 1470 1469 1469 1469 1469 1470 1471 1472 1473 1474 1475 1476 1477 1479 1480 1481 1482 1483 1484 1485 1486 1487 1487 1488 1489 1489 1489 1489 1490 1490 1491 1492 1493
1479 1478 1480 1481 1477 1474 1473 1472 1471 1470 1470 1469 1469 1468 1468 1468 1469 1470 1471 1472 1473 1474 1474 1476 1477 1478 1479 1480 1481 1482 1483 1484 1484 1485 1486 1487 1487 1487 1487 1488 1488 1489 1490 1490
1477 1477 1478 1478 1475 1474 1472 1471 1471 1470 1469 1468 1468 1468 1468 1468 1468 1469 1471 1472 1473 1474 1474 1475 1476 1477 1478 1479 1479 1480 1481 1482 1482 1483 1484 1484 1485 1485 1485 1485 1486 1486 1487 1488
1474 1474 1476 1475 1471 1472 1471 1470 1470 1469 1468 1468 1467 1467 1467 1468 1468 1469 1470 1471 1473 1474 1475 1475 1476 1476 1477 1477 1478 1479 1480 1480 1481 1481 1482 1482 1483 1483 1483 1483 1484 1484 1485 1485